Sella Ness, United Kingdom

6:58 AM GMT on February 12, 2016 (GMT +0000)
Scatsta

Weather History for EGPM - December, 2012

Change the Weather History Date:

Monday, December 17, 2012

  Actual Average Record
Temperature  
Mean Temperature 42 °F -  
Max Temperature 44 °F 41 °F 53 °F (2015)
Min Temperature 39 °F 37 °F 24 °F (2010)
Degree Days  
Heating Degree Days 24    
Moisture  
Dew Point 41 °F    
Average Humidity 89    
Maximum Humidity 93    
Minimum Humidity 81    
Precipitation  
Precipitation 0.00 in - - ()
Sea Level Pressure  
Sea Level Pressure 29.59 in    
Wind  
Wind Speed 9 mph ()    
Max Wind Speed 15 mph    
Max Gust Speed -    
Visibility 6.1 miles    
Events Rain    
Averages and records for this station are not official NWS values.
T = Trace of Precipitation, MM = Missing Value Source: Averaged Metar Reports

Daily Weather History Graph

Daily Weather History Graph

Search for Another Location

Airport or City:

Trip Planner

Search our weather history database for the weather conditions in past years. The results will help you decide how hot, cold, wet, or windy it might be!

Date:

Astronomy

Dec. 17, 2012 Rise Set
Actual Time 9:08 AM GMT 2:53 PM GMT
Civil Twilight 8:09 AM GMT 3:53 PM GMT
Nautical Twilight 7:11 AM GMT 4:50 PM GMT
Astronomical Twilight 6:19 AM GMT 5:43 PM GMT
Moon 10:58 AM GMT (12/17) 9:17 PM GMT (12/17)
Length of Visible Light 7h 43m
Length of Day
5h 44m
Waxing Crescent, 23% of the Moon is Illuminated
Dec 17
Waxing Crescent
Dec 20
First Quarter
Dec 28
Full
Jan 5
Last Quarter
Jan 11
New

Hourly Weather History & Observations

Time (GMT) Temp. Windchill Dew Point Humidity Pressure Visibility Wind Dir Wind Speed Gust Speed Precip Events Conditions
12:20 AM 42.8 °F 36.2 °F 41.0 °F 93% 29.42 in 6.2 mi SSE 12.7 mph - N/A   Mostly Cloudy
12:50 AM 44.6 °F 37.8 °F 41.0 °F 87% 29.42 in 6.2 mi SSE 15.0 mph - N/A   Mostly Cloudy
1:20 AM 42.8 °F 37.0 °F 41.0 °F 93% 29.44 in 6.2 mi SSE 10.4 mph - N/A   Overcast
1:50 AM 44.6 °F 39.2 °F 41.0 °F 87% 29.44 in 6.2 mi SSE 10.4 mph - N/A   Mostly Cloudy
2:20 AM 42.8 °F 37.5 °F 41.0 °F 93% 29.44 in 6.2 mi SE 9.2 mph - N/A   Mostly Cloudy
2:50 AM 44.6 °F 39.7 °F 41.0 °F 87% 29.44 in 6.2 mi SE 9.2 mph - N/A   Mostly Cloudy
3:20 AM 44.6 °F 39.2 °F 41.0 °F 87% 29.44 in 3.1 mi SSE 10.4 mph - N/A Rain Rain
3:50 AM 42.8 °F 37.5 °F 41.0 °F 93% 29.47 in 6.2 mi SSE 9.2 mph - N/A   Scattered Clouds
4:20 AM 44.6 °F 40.2 °F 41.0 °F 87% 29.47 in 6.2 mi SSE 8.1 mph - N/A   Mostly Cloudy
4:50 AM 42.8 °F 38.0 °F 41.0 °F 93% 29.47 in 6.2 mi SSE 8.1 mph - N/A   Mostly Cloudy
5:20 AM 44.6 °F 39.2 °F 41.0 °F 87% 29.47 in 6.2 mi SE 10.4 mph - N/A   Mostly Cloudy
5:50 AM 44.6 °F 39.7 °F 41.0 °F 87% 29.47 in 6.2 mi SE 9.2 mph - N/A   Mostly Cloudy
6:20 AM 44.6 °F 38.8 °F 42.8 °F 93% 29.50 in 6.2 mi SE 11.5 mph - N/A   Partly Cloudy
6:50 AM 44.6 °F 38.4 °F 41.0 °F 87% 29.50 in 6.2 mi SE 12.7 mph - N/A   Partly Cloudy
7:20 AM 44.6 °F 38.4 °F 42.8 °F 93% 29.50 in 6.2 mi SE 12.7 mph - N/A   Partly Cloudy
7:50 AM 44.6 °F 38.8 °F 42.8 °F 93% 29.53 in 6.2 mi SE 11.5 mph - N/A   Partly Cloudy
8:20 AM 44.6 °F 38.8 °F 41.0 °F 87% 29.53 in 6.2 mi SE 11.5 mph - N/A   Scattered Clouds
8:50 AM 44.6 °F 39.2 °F 41.0 °F 87% 29.53 in 6.2 mi SSE 10.4 mph - N/A   Scattered Clouds
9:20 AM 44.6 °F 38.8 °F 41.0 °F 87% 29.56 in 6.2 mi SSE 11.5 mph - N/A   Scattered Clouds
9:50 AM 42.8 °F 37.0 °F 39.2 °F 87% 29.56 in 6.2 mi SSE 10.4 mph - N/A   Scattered Clouds
10:20 AM 44.6 °F 38.4 °F 41.0 °F 87% 29.59 in 6.2 mi SE 12.7 mph - N/A   Scattered Clouds
10:50 AM 44.6 °F 39.2 °F 41.0 °F 87% 29.59 in 6.2 mi SE 10.4 mph - N/A   Scattered Clouds
11:20 AM 44.6 °F 39.2 °F 42.8 °F 93% 29.59 in 6.2 mi SE 10.4 mph - N/A   Scattered Clouds
11:50 AM 44.6 °F 40.7 °F 39.2 °F 81% 29.62 in 6.2 mi SSE 6.9 mph - N/A   Scattered Clouds
12:20 PM 44.6 °F 41.4 °F 41.0 °F 87% 29.62 in 6.2 mi SSE 5.8 mph - N/A Rain Light Rain Showers
12:50 PM 44.6 °F 40.7 °F 42.8 °F 93% 29.62 in 6.2 mi SE 6.9 mph - N/A   Scattered Clouds
1:20 PM 44.6 °F 40.2 °F 41.0 °F 87% 29.62 in 6.2 mi SSE 8.1 mph - N/A   Partly Cloudy
1:50 PM 44.6 °F 40.7 °F 41.0 °F 87% 29.65 in 6.2 mi SE 6.9 mph - N/A   Partly Cloudy
2:20 PM 44.6 °F 40.7 °F 41.0 °F 87% 29.65 in 6.2 mi SE 6.9 mph - N/A   Partly Cloudy
3:20 PM 42.8 °F 38.6 °F 39.2 °F 87% 29.68 in 6.2 mi SE 6.9 mph - N/A   Partly Cloudy
3:50 PM 39.2 °F 33.6 °F 35.6 °F 87% 29.68 in 6.2 mi SE 8.1 mph - N/A   Partly Cloudy
4:20 PM 39.2 °F 33.0 °F 37.4 °F 93% 29.68 in 6.2 mi SE 9.2 mph - N/A   Partly Cloudy
4:50 PM 41.0 °F 36.4 °F 39.2 °F 93% 29.71 in 6.2 mi SE 6.9 mph - N/A   Partly Cloudy
5:20 PM 42.8 °F 37.5 °F 39.2 °F 87% 29.71 in 6.2 mi ESE 9.2 mph - N/A   Partly Cloudy
5:50 PM 41.0 °F 35.2 °F 39.2 °F 93% 29.71 in 6.2 mi SE 9.2 mph - N/A   Partly Cloudy
6:20 PM 42.8 °F 37.0 °F 41.0 °F 93% 29.74 in 6.2 mi SE 10.4 mph - N/A   Partly Cloudy
6:50 PM 44.6 °F 38.8 °F 41.0 °F 87% 29.74 in 6.2 mi SE 11.5 mph - N/A   Overcast
7:20 PM 42.8 °F 36.2 °F 39.2 °F 87% 29.74 in 6.2 mi SE 12.7 mph - N/A Rain Rain
7:50 PM 42.8 °F 38.0 °F 39.2 °F 87% 29.77 in 6.2 mi SE 8.1 mph - N/A   Scattered Clouds
8:20 PM 42.8 °F 38.0 °F 41.0 °F 93% 29.77 in 6.2 mi SE 8.1 mph - N/A   Partly Cloudy
8:50 PM 44.6 °F 39.7 °F 41.0 °F 87% 29.80 in 6.2 mi SE 9.2 mph - N/A   Mostly Cloudy
9:20 PM 42.8 °F 38.0 °F 41.0 °F 93% 29.80 in 6.2 mi SSE 8.1 mph - N/A Rain Light Rain
9:50 PM 44.6 °F 39.7 °F 41.0 °F 87% 29.80 in 6.2 mi SE 9.2 mph - N/A   Drizzle